Location: Coll
(42.4728°N, 0.7714°E)
Time: 11:27:03
(UTC+00:00)

Cosmos 1626 - Pass Details

Date: 23 October 2020
Orbit: 491 x 493 km, 82.5° (Epoch: 30 November)

Event Time Altitude Azimuth Distance (km) Brightness Sun altitude
Rises 05:23:32 0° 200° (SSW) 2,561 5.6 -11.0°
Reaches altitude 10° 05:25:41 10° 206° (SSW) 1,683 4.6 -10.6°
Maximum altitude 05:29:15 47° 281° (W) 661 2.3 -10.0°
Drops below altitude 10° 05:32:51 10° 356° (N) 1,696 4.7 -9.3°
Sets 05:35:01 0° 3° (N) 2,583 5.7 -8.9°
